Regional Weather Roundup
Issued by NWS Glasgow, MT

Home | Current Version | Previous Version | Text Only | Print | Product List | Glossary On
Versions: 1 2 3 4 5 6 7 8 9 10 11 12 13 14 15 16 17 18 19 20 21 22 23 24 25 26 27 28 29 30 31 32 33 34 35 36 37 38 39 40 41 42 43 44 45 46 47 48 49 50
000
ASUS45 KGGW 271615
RWRGGW
HOURLY WEATHER ROUNDUP FOR NORTHEAST MONTANA
NATIONAL WEATHER SERVICE GLASGOW MONTANA
1000 AM MDT FRI MAR 27 2015

NOTE: "FAIR" INDICATES FEW OR NO CLOUDS BELOW 12,000 FEET WITH NO
SIGNIFICANT WEATHER AND/OR OBSTRUCTIONS TO VISISBILITY.

NORTHEAST MONTANA


CITY           SKY/WX    TMP DP  RH WIND       PRES   REMARKS
GLASGOW        SUNNY     49  37  63 NW8       29.97S
PLENTYWOOD       N/A     42  34  73 W3          N/A
WOLF POINT     PTSUNNY   48  37  65 SW8       29.97S
JORDAN           N/A     59  39  47 NW17      29.99S
WINNETT          N/A     60  32  34 W8          N/A
SIDNEY         PTSUNNY   52  36  54 W15       29.93F
GLENDIVE         N/A     52  39  62 W12       29.97S
MALTA            N/A     55  40  56 SW6         N/A
SCOBEY           N/A     47  35  63 W6        29.92S

FORT PECK REPORTS


CITY           SKY/WX    TMP DP  RH WIND       PRES   REMARKS
FORT PECK        N/A     47  38  71 SE3         N/A
THE PINES        N/A     57  37  47 W9G20       N/A

SOUTHEAST MONTANA


CITY           SKY/WX    TMP DP  RH WIND       PRES   REMARKS
BILLINGS       PTSUNNY   54  36  50 SW20      30.07F
MILES CITY     MOSUNNY   58  38  47 NW16      30.00S
BAKER          CLOUDY    51  38  60 NW12      29.98S
LIVINGSTON     PTSUNNY   57  32  38 W18G29    30.16S

CENTRAL MONTANA


CITY           SKY/WX    TMP DP  RH WIND       PRES   REMARKS
HAVRE          MOSUNNY   54  38  54 SW10      30.00S
LEWISTOWN      SUNNY     59  33  37 W12       30.06F
GREAT FALLS    MOSUNNY   60  33  36 SW9       30.05S
CUT BANK       CLOUDY    56  35  45 W23G36    30.02F
HELENA         MOSUNNY   57  37  47 CALM      30.15S
BUTTE          SUNNY     40  33  76 CALM      30.22F
BOZEMAN        MOSUNNY   50  36  58 E3        30.19F

WESTERN MONTANA


CITY           SKY/WX    TMP DP  RH WIND       PRES   REMARKS
MISSOULA       CLOUDY    39  39 100 CALM      30.21F FOG
KALISPELL      NOT AVBL

NORTH DAKOTA


CITY           SKY/WX    TMP DP  RH WIND       PRES   REMARKS
WILLISTON      CLOUDY    39  32  76 SW5       29.92F
DICKINSON      PTSUNNY   48  35  60 W14       29.91S
MINOT          CLOUDY    32  26  78 S13G23    29.94F
BISMARCK       CLOUDY    27  23  85 S18       30.04F

SOUTHERN SASKATCHEWAN


CITY           SKY/WX    TMP DP  RH WIND       PRES   REMARKS
REGINA         CLOUDY    37  34  87 W6        29.89S
MOOSE JAW      PTSUNNY   46  37  71 NW9       29.91S
ESTEVAN        CLOUDY    37  32  81 SW12      29.89
SWIFT CURRENT  SUNNY     52  39  62 W10       29.91R



USA.gov is the U.S. government's official web portal to all federal, state and local government web resources and services.